This demonstration page uses our WeatherBlox Daily Observations layout. Learn more.

Left ArrowRight Arrow

39.01783, -85.05884

Hourly Observations for August 29, 2015

Temp ( °F °C ) Dew Point ( °F °C ) Humidity (%) Winds ( mph kmh ) Pressure ( in mb ) Visibility ( mi km ) Precip ( " mm )
12:52 am 00:52 Clear 66 18.9 58 14.4 75 75 SE 6 9 30.11 1020 10 16.0934 N/A
1:52 am 01:52 Clear 66 18.9 58 14.4 75 75 SE 3 6 30.11 1020 10 16.0934 N/A
2:52 am 02:52 Clear 67 19.4 58 14.4 73 73 ESE 3 6 30.09 1019 10 16.0934 N/A
3:52 am 03:52 Cloudy 68 20 59 15 73 73 N N/A 30.08 1019 10 16.0934 N/A
4:52 am 04:52 Cloudy 68 20 59 15 73 73 SSE 7 11 30.09 1019 10 16.0934 N/A
5:52 am 05:52 Mostly Cloudy 67 19.4 60 15.6 79 79 SSE 3 6 30.09 1019 10 16.0934 N/A
6:52 am 06:52 Partly Cloudy 67 19.4 61 16.1 81 81 S 8 13 30.1 1019 10 16.0934 N/A
7:52 am 07:52 Mostly Cloudy 68 20 62 16.7 81 81 S 9 15 30.12 1020 10 16.0934 N/A
8:52 am 08:52 Partly Cloudy 71 21.7 64 17.8 79 79 SSW 9 15 30.13 1020 10 16.0934 N/A
10:52 am 10:52 Partly Cloudy 78 25.6 67 19.4 69 69 SW 9 15 30.12 1020 10 16.0934 N/A
11:52 am 11:52 Partly Cloudy 81 27.2 68 20 65 65 SW 7 11 30.12 1020 10 16.0934 N/A
12:52 pm 12:52 Partly Cloudy 83 28.3 69 20.6 63 63 VRB 6 9 30.11 1020 10 16.0934 N/A
1:52 pm 13:52 Mostly Cloudy 85 29.4 67 19.4 55 55 WSW 9 15 30.09 1019 10 16.0934 N/A
2:52 pm 14:52 Mostly Cloudy 85 29.4 65 18.3 51 51 SW 9 15 30.06 1018 10 16.0934 N/A
3:38 pm 15:38 Cloudy 79 26 70 21 74 74 WNW 14 22 30.06 1018 9 14.48406 N/A
3:52 pm 15:52 Mostly Cloudy 80 26.7 69 20.6 69 69 NW 7 11 30.05 1018 9 14.48406 N/A
4:52 pm 16:52 Mostly Cloudy with Thunderstorms 79 26.1 67 19.4 67 67 WSW 14 22 30.06 1018 10 16.0934 N/A
5:12 pm 17:12 Cloudy with Rain 73 23 64 18 74 74 WSW 6 9 30.06 1018 4 6.43736 N/A
5:52 pm 17:52 Mostly Cloudy 74 23.3 70 21.1 88 88 S 3 6 30.04 1017 8 12.87472 0.01 0.254
6:52 pm 18:52 Mostly Cloudy 77 25 69 20.6 77 77 S 5 7 30.04 1017 10 16.0934 N/A
8:52 pm 20:52 Mostly Cloudy 74 23.3 67 19.4 79 79 N N/A 30.04 1017 10 16.0934 N/A
9:52 pm 21:52 Mostly Cloudy 73 22.8 64 17.8 74 74 S 5 7 30.05 1018 10 16.0934 N/A
10:52 pm 22:52 Partly Cloudy 70 21.1 66 18.9 87 87 SSE 5 7 30.06 1018 10 16.0934 N/A
11:52 pm 23:52 Mostly Cloudy 72 22.2 67 19.4 84 84 SSW 6 9 30.05 1018 10 16.0934 N/A

Powered by AerisWeather